Tracking 19854 objects as of 23-Sep-2019
HD Live streaming from Space Station
objects crossing your sky now

CZ-4 DEB

Track CZ-4 DEB now!
10-day predictions


NORAD ID: 26141
Int'l Code: 1999-057AD
Perigee: 598.5 km
Apogee: 625.1 km
Inclination: 98.5 °
Period: 96.8 minutes
Semi major axis: 6982 km
RCS: 1.5817 m2 (large)
Launch date: October 14, 1999
Source: People's Republic of China (PRC)
Launch site: Taiyaun Space Center, China (TSC)

Note: This is SATELLITE DEBRIS
aabbcc
Your satellite tracking list
Your tracking list is empty




NASA's NSSDC Master Catalog

Two Line Element Set (TLE):
1 26141U 99057AD  19266.16973649  .00000901  00000-0  10525-3 0  9999
2 26141  98.4853 291.0369 0019044 259.2192 142.4732 14.87840008 45115
Source of the keplerian elements: AFSPC